Location: Coupvray
(48.8929°N, 2.7967°E)
Time: 21:54:12
(UTC+00:00)

Cosmos 1241 Rocket - Pass Details

Date: 04 November 2020
Orbit: 929 x 1018 km, 65.8° (Epoch: 30 November)

Event Time Altitude Azimuth Distance (km) Brightness Sun altitude
Rises 16:46:13 0° 255° (WSW) 3,658 10.5 -4.4°
Reaches altitude 10° 16:49:04 10° 265° (W) 2,728 8.5 -4.8°
Maximum altitude 16:54:43 32° 327° (NNW) 1,644 5.9 -5.7°
Drops below altitude 10° 17:00:30 10° 29° (NNE) 2,789 6.5 -6.6°
Enters shadow 17:03:04 - 39° (NE) 3,620 7.0 -7.0°
